TimeEST,TemperatureF,Dew PointF,Humidity,Sea Level PressureIn,VisibilityMPH,Wind Direction,Wind SpeedMPH,Gust SpeedMPH,PrecipitationIn,Events,Conditions,WindDirDegrees,DateUTC
12:57 AM,46.9,43.0,86,30.07,9.0,SW,3.5,-,N/A,,Mostly Cloudy,230,2014-02-10 05:57:00
1:57 AM,44.1,39.9,85,30.05,9.0,Calm,Calm,-,N/A,,Clear,0,2014-02-10 06:57:00
2:57 AM,39.9,37.0,89,30.04,8.0,Calm,Calm,-,N/A,,Clear,0,2014-02-10 07:57:00
3:57 AM,39.9,37.9,93,30.05,9.0,Calm,Calm,-,N/A,,Clear,0,2014-02-10 08:57:00
4:57 AM,39.0,36.0,89,30.06,7.0,NNW,3.5,-,N/A,,Clear,330,2014-02-10 09:57:00
5:57 AM,42.1,37.9,85,30.10,8.0,NNW,5.8,-,N/A,,Clear,330,2014-02-10 10:57:00
6:57 AM,43.0,39.9,89,30.09,7.0,North,5.8,-,N/A,,Clear,350,2014-02-10 11:57:00
7:57 AM,44.1,39.0,82,30.09,10.0,North,6.9,-,N/A,,Mostly Cloudy,10,2014-02-10 12:57:00
8:57 AM,45.0,36.0,71,30.15,10.0,North,8.1,-,N/A,,Overcast,10,2014-02-10 13:57:00
9:57 AM,48.0,37.0,66,30.19,10.0,NE,10.4,-,N/A,,Mostly Cloudy,40,2014-02-10 14:57:00
10:57 AM,50.0,36.0,59,30.18,10.0,NE,10.4,-,N/A,,Mostly Cloudy,40,2014-02-10 15:57:00
11:57 AM,52.0,36.0,54,30.15,10.0,NNE,8.1,-,N/A,,Scattered Clouds,30,2014-02-10 16:57:00
12:57 PM,51.1,34.0,52,30.14,10.0,NE,12.7,18.4,N/A,,Mostly Cloudy,50,2014-02-10 17:57:00
1:57 PM,48.9,34.0,56,30.12,10.0,ENE,12.7,-,N/A,,Overcast,60,2014-02-10 18:57:00
2:57 PM,46.9,33.1,59,30.12,10.0,NE,13.8,-,N/A,,Overcast,50,2014-02-10 19:57:00
3:57 PM,46.0,33.1,61,30.14,10.0,NE,9.2,19.6,N/A,,Mostly Cloudy,50,2014-02-10 20:57:00
4:57 PM,43.0,30.9,62,30.17,10.0,ENE,10.4,-,N/A,,Overcast,60,2014-02-10 21:57:00
5:57 PM,42.1,30.0,62,30.20,10.0,NE,8.1,-,N/A,,Mostly Cloudy,50,2014-02-10 22:57:00
6:57 PM,39.9,28.9,65,30.21,10.0,ENE,10.4,-,N/A,,Partly Cloudy,60,2014-02-10 23:57:00
7:57 PM,39.9,28.9,65,30.23,10.0,NNE,6.9,-,N/A,,Overcast,30,2014-02-11 00:57:00
8:57 PM,39.0,28.0,65,30.23,10.0,NNE,6.9,-,N/A,,Overcast,30,2014-02-11 01:57:00
9:57 PM,39.0,27.0,62,30.23,10.0,NE,11.5,-,N/A,,Overcast,40,2014-02-11 02:57:00
10:57 PM,37.9,28.0,68,30.25,10.0,NNE,8.1,-,N/A,,Overcast,30,2014-02-11 03:57:00
11:57 PM,35.1,30.9,85,30.24,4.0,NNE,6.9,-,0.00,Rain,Light Rain,30,2014-02-11 04:57:00